Location: Milton Keynes
(52.0316°N, 0.7531°W)
Time: 19:52:09
(UTC+00:00)

N. Korean satellite - Pass Details

Date: 30 January 2019
Orbit: 456 x 510 km, 97.2° (Epoch: 20 February)

Event Time Altitude Azimuth Distance (km) Brightness Sun altitude
Rises 17:38:54 0° 178° (S) 2,605 10.5 -8.2°
Reaches altitude 10° 17:41:01 10° 184° (S) 1,728 9.7 -8.5°
Maximum altitude 17:44:39 49° 261° (W) 666 7.8 -9.1°
Drops below altitude 10° 17:48:19 10° 337° (NNW) 1,743 9.5 -9.6°
Sets 17:50:29 0° 343° (NNW) 2,632 10.3 -9.9°
